Tracking 21612 objects as of 19-Oct-2020
HD Live streaming from Space Station
objects crossing your sky now

SL-12 DEB

Track SL-12 DEB now!
10-day predictions


NORAD ID: 43918
Int'l Code: 2010-007AP
Perigee: 370.5 km
Apogee: 20,575.9 km
Inclination: 64.9 °
Period: 362.6 minutes
Semi major axis: 16844 km
RCS: Unknown
Launch date: March 1, 2010
Source: Commonwealth of Independent States (former USSR) (CIS)
Launch site: TYURATAM MISSILE AND SPACE COMPLEX (TTMTR)

Note: This is SATELLITE DEBRIS
aabbcc
Your satellite tracking list
Your tracking list is empty




NASA's NSSDC Master Catalog

Two Line Element Set (TLE):
1 43918U 10007AP  19279.37596912 +.00004321 +00000-0 +29679-2 0  9998
2 43918 064.9404 007.6115 5997717 026.1898 355.7132 03.97124296018719
Source of the keplerian elements: AFSPC